Weather History for Savanna, IL

Change the Weather History Date:

Tuesday, February 26, 2013

  Actual Average (KCWI) Record (KCWI)
Temperature  
Mean Temperature 34 °F -  
Max Temperature 36 °F 40 °F 63 °F (1971)
Min Temperature 32 °F 21 °F -10 °F (1950)
Degree Days  
Heating Degree Days 31    
Moisture  
Dew Point 28 °F    
Average Humidity 81    
Maximum Humidity 94    
Minimum Humidity 67    
Precipitation  
Precipitation 0.00 in - - ()
Sea Level Pressure  
Sea Level Pressure 29.69 in    
Wind  
Wind Speed 16 mph (NNE)    
Max Wind Speed 25 mph    
Max Gust Speed 37 mph    
Visibility 7 miles    
Events Snow    
Averages and records for this station are not official NWS values.
T = Trace of Precipitation, MM = Missing Value Source: NWS Daily Summary

Daily Weather History Graph

Daily Weather History Graph

Search for Another Location

Airport:

Trip Planner

Search our weather history database for the weather conditions in past years. The results will help you decide how hot, cold, wet, or windy it might be!

Date:

Astronomy

Feb. 26, 2013 Rise Set
Actual Time 6:39 AM CST 5:47 PM CST
Civil Twilight 6:11 AM CST 6:15 PM CST
Nautical Twilight 5:39 AM CST 6:47 PM CST
Astronomical Twilight 5:07 AM CST 7:20 PM CST
Moon 7:06 PM CST (2/26) 6:40 AM CST (2/26)
Length of Visible Light 12h 03m
Length of Day
11h 07m
Full, 99% of the Moon is Illuminated
Feb 26
Full
Mar 4
Last Quarter
Mar 11
New
Mar 19
First Quarter
Mar 27
Full

Hourly Weather History & Observations

Time (CST) Temp. Windchill Dew Point Humidity Pressure Visibility Wind Dir Wind Speed Gust Speed Precip Events Conditions
12:15 AM 33.8 °F 25.3 °F 27.7 °F 78% 29.93 in 10.0 mi ENE 11.5 mph - N/A   Clear
12:35 AM 33.4 °F 25.4 °F 27.5 °F 79% 29.92 in 10.0 mi ENE 10.4 mph - N/A   Clear
12:55 AM 33.4 °F 24.8 °F 27.9 °F 80% 29.91 in 10.0 mi ENE 11.5 mph - N/A   Clear
1:15 AM 33.4 °F 25.9 °F 27.7 °F 79% 29.91 in 10.0 mi NE 9.2 mph - N/A   Mostly Cloudy
1:35 AM 33.4 °F 24.3 °F 27.9 °F 80% 29.90 in 10.0 mi ENE 12.7 mph 17.3 mph N/A   Scattered Clouds
1:55 AM 33.8 °F 24.8 °F 27.7 °F 78% 29.88 in 10.0 mi NE 12.7 mph - N/A   Scattered Clouds
2:15 AM 33.8 °F 23.9 °F 27.9 °F 79% 29.86 in 10.0 mi NE 15.0 mph 18.4 mph N/A   Scattered Clouds
2:35 AM 34.2 °F 24.8 °F 28.0 °F 78% 29.86 in 10.0 mi NE 13.8 mph 17.3 mph N/A   Overcast
2:55 AM 34.3 °F 25.0 °F 27.9 °F 77% 29.83 in 10.0 mi NE 13.8 mph 20.7 mph N/A   Overcast
3:15 AM 34.3 °F 25.0 °F 28.0 °F 78% 29.83 in 10.0 mi NE 13.8 mph 19.6 mph N/A   Overcast
3:35 AM 34.3 °F 24.6 °F 28.2 °F 78% 29.82 in 10.0 mi NE 15.0 mph 19.6 mph N/A   Mostly Cloudy
3:55 AM 34.0 °F 24.6 °F 28.4 °F 80% 29.81 in 10.0 mi NE 13.8 mph 21.9 mph N/A   Overcast
4:15 AM 34.3 °F 24.2 °F 28.6 °F 79% 29.79 in 10.0 mi NE 16.1 mph 21.9 mph N/A   Overcast
4:35 AM 34.2 °F 24.0 °F 28.6 °F 80% 29.79 in 10.0 mi NE 16.1 mph 21.9 mph N/A   Overcast
4:55 AM 34.2 °F 23.3 °F 28.4 °F 79% 29.77 in 10.0 mi NE 18.4 mph 23.0 mph N/A   Mostly Cloudy
5:15 AM 34.3 °F 23.2 °F 28.4 °F 79% 29.75 in 10.0 mi NE 19.6 mph 27.6 mph N/A   Mostly Cloudy
5:35 AM 34.7 °F 22.8 °F 28.4 °F 78% 29.74 in 10.0 mi NE 23.0 mph 29.9 mph N/A   Overcast
5:55 AM 34.7 °F 22.5 °F 28.6 °F 78% 29.71 in 10.0 mi NNE 24.2 mph 32.2 mph N/A   Overcast
6:15 AM 34.7 °F 23.1 °F 28.4 °F 78% 29.69 in 10.0 mi NNE 21.9 mph 32.2 mph N/A   Overcast
6:35 AM 34.9 °F 24.6 °F 28.4 °F 77% 29.71 in 10.0 mi NE 17.3 mph 31.1 mph N/A   Overcast
6:55 AM 35.1 °F 25.2 °F 28.2 °F 76% 29.74 in 10.0 mi ENE 16.1 mph 25.3 mph N/A   Overcast
7:15 AM 35.1 °F 23.5 °F 28.0 °F 76% 29.73 in 10.0 mi NE 21.9 mph 29.9 mph N/A   Overcast
7:35 AM 35.4 °F 24.6 °F 27.5 °F 73% 29.72 in 10.0 mi ENE 19.6 mph 29.9 mph N/A   Overcast
7:55 AM 35.6 °F 24.0 °F 27.7 °F 73% 29.72 in 10.0 mi NE 23.0 mph 28.8 mph N/A   Overcast
8:15 AM 35.8 °F 25.4 °F 27.5 °F 72% 29.72 in 10.0 mi NE 18.4 mph 26.5 mph N/A   Scattered Clouds
8:35 AM 35.8 °F 25.7 °F 27.3 °F 71% 29.71 in 10.0 mi NE 17.3 mph 26.5 mph N/A   Scattered Clouds
8:55 AM 35.8 °F 24.8 °F 27.3 °F 71% 29.70 in 10.0 mi NE 20.7 mph 26.5 mph N/A   Mostly Cloudy
9:15 AM 36.5 °F 26.0 °F 27.3 °F 69% 29.69 in 10.0 mi NE 19.6 mph 27.6 mph N/A   Overcast
9:35 AM 36.5 °F 25.7 °F 27.1 °F 69% 29.67 in 10.0 mi NNE 20.7 mph 29.9 mph N/A   Overcast
9:55 AM 36.5 °F 25.4 °F 27.0 °F 68% 29.66 in 10.0 mi NNE 21.9 mph 27.6 mph N/A   Overcast
10:15 AM 36.5 °F 26.3 °F 27.1 °F 69% 29.66 in 10.0 mi NNE 18.4 mph 32.2 mph N/A   Overcast
10:35 AM 36.0 °F 25.6 °F 27.1 °F 70% 29.65 in 10.0 mi NNE 18.4 mph 27.6 mph N/A   Overcast
10:55 AM 36.1 °F 24.7 °F 26.6 °F 68% 29.66 in 10.0 mi NE 23.0 mph 28.8 mph N/A   Overcast
11:15 AM 36.5 °F 26.3 °F 26.6 °F 67% 29.66 in 10.0 mi NE 18.4 mph 26.5 mph N/A   Overcast
11:35 AM 36.5 °F 26.0 °F 26.6 °F 67% 29.64 in 10.0 mi NNE 19.6 mph 29.9 mph N/A   Overcast
11:55 AM 36.5 °F 26.7 °F 26.8 °F 68% 29.64 in 10.0 mi NNE 17.3 mph 27.6 mph N/A   Overcast
12:15 PM 35.8 °F 26.1 °F 26.8 °F 70% 29.64 in 10.0 mi NNE 16.1 mph 26.5 mph N/A   Overcast
12:35 PM 35.8 °F 24.2 °F 26.6 °F 69% 29.63 in 10.0 mi NNE 23.0 mph 28.8 mph N/A   Overcast
12:55 PM 34.3 °F 22.6 °F 27.3 °F 76% 29.61 in 4.0 mi NNE 21.9 mph 27.6 mph N/A Snow Light Snow
1:15 PM 34.7 °F 23.7 °F 26.8 °F 73% 29.60 in 7.0 mi NNE 19.6 mph 27.6 mph N/A Snow Light Snow
1:35 PM 35.6 °F 24.2 °F 26.4 °F 69% 29.59 in 10.0 mi NNE 21.9 mph 31.1 mph N/A   Overcast
1:55 PM 35.2 °F 23.2 °F 26.2 °F 70% 29.57 in 10.0 mi NNE 24.2 mph 34.5 mph N/A   Overcast
2:15 PM 34.3 °F 21.8 °F 27.1 °F 75% 29.58 in 4.0 mi NNE 25.3 mph 36.8 mph N/A Snow Light Snow
2:35 PM 33.8 °F 21.9 °F 27.5 °F 78% 29.58 in 4.0 mi NNE 21.9 mph 33.4 mph N/A Snow Light Snow
2:55 PM 32.7 °F 21.4 °F 29.3 °F 87% 29.58 in 1.0 mi NNE 18.4 mph 27.6 mph N/A Snow Light Snow
3:15 PM 32.2 °F 20.4 °F 29.8 °F 91% 29.60 in 1.5 mi NNE 19.6 mph 27.6 mph N/A Snow Light Snow
3:35 PM 32.0 °F 20.8 °F 30.2 °F 93% 29.60 in 1.2 mi NNE 17.3 mph 25.3 mph N/A Snow Light Snow
3:55 PM 32.0 °F 20.8 °F 29.8 °F 92% 29.59 in 2.0 mi North 17.3 mph 26.5 mph N/A Snow Light Snow
4:15 PM 32.0 °F 20.5 °F 29.3 °F 90% 29.60 in 4.0 mi NNE 18.4 mph 25.3 mph N/A Snow Light Snow
4:35 PM 32.0 °F 21.6 °F 29.3 °F 90% 29.61 in 5.0 mi NNE 15.0 mph 20.7 mph N/A   Overcast
4:55 PM 32.0 °F 21.2 °F 29.3 °F 90% 29.61 in 3.0 mi NNE 16.1 mph 25.3 mph N/A Snow Light Snow
5:15 PM 32.0 °F 20.1 °F 29.3 °F 90% 29.61 in 2.5 mi North 19.6 mph 27.6 mph N/A Snow Light Snow
5:35 PM 32.4 °F 21.3 °F 28.9 °F 87% 29.61 in 5.0 mi NNE 17.3 mph 28.8 mph N/A   Overcast
5:55 PM 32.2 °F 20.7 °F 29.1 °F 88% 29.62 in 4.0 mi NNE 18.4 mph 31.1 mph N/A Snow Light Snow
6:15 PM 32.0 °F 20.5 °F 29.3 °F 90% 29.62 in 5.0 mi North 18.4 mph 27.6 mph N/A Snow Light Snow
6:35 PM 32.4 °F 21.3 °F 29.1 °F 88% 29.63 in 5.0 mi North 17.3 mph 29.9 mph N/A Snow Light Snow
6:55 PM 32.4 °F 20.9 °F 29.7 °F 90% 29.63 in 3.0 mi North 18.4 mph 26.5 mph N/A Snow Light Snow
7:15 PM 32.4 °F 21.3 °F 30.0 °F 91% 29.63 in 2.0 mi North 17.3 mph 25.3 mph N/A Snow Light Snow
7:35 PM 32.2 °F 21.4 °F 30.2 °F 92% 29.63 in 3.0 mi North 16.1 mph 23.0 mph N/A Snow Light Snow
7:55 PM 32.0 °F 21.2 °F 30.6 °F 94% 29.62 in 1.0 mi North 16.1 mph 24.2 mph N/A Snow Light Snow
8:15 PM 32.4 °F 22.1 °F 30.6 °F 93% 29.62 in 2.0 mi North 15.0 mph 26.5 mph N/A Snow Light Snow
8:35 PM 32.0 °F 20.5 °F 30.6 °F 94% 29.62 in 1.5 mi North 18.4 mph 23.0 mph N/A Snow Light Snow
8:55 PM 32.2 °F 21.1 °F 30.4 °F 93% 29.62 in 2.5 mi North 17.3 mph 24.2 mph N/A Snow Light Snow
9:15 PM 32.2 °F 20.7 °F 30.2 °F 92% 29.62 in 5.0 mi North 18.4 mph 24.2 mph N/A Snow Light Snow
9:35 PM 32.2 °F 22.3 °F 30.0 °F 92% 29.62 in 7.0 mi North 13.8 mph 20.7 mph N/A Snow Light Snow
9:55 PM 32.4 °F 22.5 °F 29.8 °F 90% 29.62 in 7.0 mi North 13.8 mph 23.0 mph N/A Snow Light Snow
10:15 PM 32.4 °F 23.5 °F 30.0 °F 91% 29.63 in 5.0 mi North 11.5 mph 17.3 mph N/A Snow Light Snow
10:35 PM 32.2 °F 22.3 °F 30.0 °F 92% 29.63 in 3.0 mi North 13.8 mph 19.6 mph N/A Snow Light Snow
10:55 PM 32.0 °F 22.5 °F 30.2 °F 93% 29.63 in 4.0 mi North 12.7 mph - N/A Snow Light Snow
11:15 PM 32.0 °F 22.1 °F 29.8 °F 92% 29.63 in 7.0 mi North 13.8 mph 17.3 mph N/A Snow Light Snow
11:35 PM 32.0 °F 22.5 °F 29.5 °F 90% 29.63 in 4.0 mi North 12.7 mph - N/A Snow Light Snow
11:55 PM 32.0 °F 21.2 °F 29.3 °F 90% 29.63 in 4.0 mi North 16.1 mph 20.7 mph N/A Snow Light Snow